Regional Weather Roundup
Issued by NWS Grand Forks, ND

Home | Current Version | Previous Version | Graphics & Text | Print | Product List | Glossary On
Versions: 1 2 3 4 5 6 7 8 9 10 11 12 13 14 15 16 17 18 19 20 21 22 23 24 25 26 27 28 29 30 31 32 33 34 35 36 37 38 39 40 41 42 43 44 45 46 47 48 49 50
000
ASUS43 KFGF 161810
RWRFGF
PRAIRIE TO PINES  WEATHER ROUNDUP
NATIONAL WEATHER SERVICE EASTERN NORTH DAKOTA/GRAND FORKS ND
100 PM CDT WED APR 16 2014

 **SATELLITE DATA USED TO AUGMENT SKY COVER AT AUTOMATED STATIONS**
 *****  WEATHER ACROSS EASTERN NORTH DAKOTA  *****

CITY           SKY/WX    TMP DP  RH WIND       PRES   REMARKS
GRAND FORKS    FAIR      40   7  25 NE20G26   30.09S
6HR MIN TEMP:  28; 6HR MAX TEMP:  40;

GRAND FRKS AFB FAIR      40   9  28 E14G25    30.13S
GRAND FRKS NWS   N/A     39 N/A N/A NE15        N/A
DEVILS LAKE    FAIR      36  10  35 NE21      30.13R
6HR MIN TEMP:  23; 6HR MAX TEMP:  36;

FARGO          CLOUDY    32  23  69 NE16      30.06R WCI  21
WAHPETON ARPT  MOCLDY    32  23  69 E17G26    29.99S WCI  21
$$

 ***** WEATHER ACROSS CENTRAL AND WESTERN NORTH DAKOTA  *****

CITY           SKY/WX    TMP DP  RH WIND       PRES   REMARKS
BISMARCK       CLOUDY    30  21  69 NE15      30.09R WCI  19
6HR MIN TEMP:  28; 6HR MAX TEMP:  30;

MINOT          LGT SNOW  26  20  77 NE10      30.16R WCI  16
6HR MIN TEMP:  22; 6HR MAX TEMP:  26; 6HR PCP: TRACE;

JAMESTOWN      CLOUDY    31  20  63 NE17      30.06R WCI  19
6HR MIN TEMP:  26; 6HR MAX TEMP:  31;

MINOT AFB      LGT SNOW  28  20  74 E9        30.17R WCI  19
GARRISON         N/A     26  19  74 E13       30.12R WCI  15
WILLISTON      CLOUDY    27  21  78 E16       30.15R WCI  15
6HR MIN TEMP:  25; 6HR MAX TEMP:  27;

DICKINSON      CLOUDY    27  21  78 NE9       30.04R WCI  18
6HR MIN TEMP:  22; 6HR MAX TEMP:  27;

HETTINGER      CLOUDY    29  21  72 NE12      30.03R WCI  19
6HR MIN TEMP:  23; 6HR MAX TEMP:  30;

$$

 *****  OTHER AIRPORT OBSERVATIONS IN OUR AREA  *****

CITY           SKY/WX    TMP DP  RH WIND       PRES   REMARKS
WALHALLA         N/A     32   7  34 E16G22    30.22R WCI  21
GRAFTON AIRPOR FAIR      36  12  38 NE18G28   30.17S
VALLEY CITY AR NOT AVBL
CANDO          CLOUDY    36  10  35 NE17G26   30.16R
CAVALIER APRT  FAIR      34   9  35 NE13G20   30.21R WCI  25
GWINNER        CLOUDY    34  27  75 NE22G29   30.00S WCI  22
ROLLA          CLOUDY    30  14  51 NE20      30.17S WCI  18
 ***** THE ABOVE OBSERVATIONS ARE NON NWS ARE NOT QUALITY
       CONTROLLED AND MAY MIS-REPORT RAIN FOR SNOW...
$$

  *****  WEATHER ACROSS NORTHERN MINNESOTA  *****

CITY           SKY/WX    TMP DP  RH WIND       PRES   REMARKS
FLAG ISLAND    FAIR      28   3  34 N10       30.22S WCI  19
WARROAD        FAIR      30  10  43 NE18      30.21F WCI  18
ROSEAU         FAIR      34   9  35 NE20      30.20S WCI  22
HALLOCK        CLOUDY    36   9  32 NE14G20   30.19F
THF RVR FALLS  FAIR      36   7  30 NE14G23   30.12F
6HR MIN TEMP:  25; 6HR MAX TEMP:  37;

BAUDETTE       FAIR      34   6  31 NE14      30.18S WCI  25
6HR MIN TEMP:  19; 6HR MAX TEMP:  34;

WASKISH        CLOUDY    37   9  30 NE15G22   30.13F
CROOKSTON      FAIR      37   9  30 E15G23    30.12S
$$
  *****  WEATHER ACROSS CENTRAL AND WEST MINNESOTA  *****

CITY           SKY/WX    TMP DP  RH WIND       PRES   REMARKS
FOSSTON        PTSUNNY   37  18  44 E13G22    30.08R
BEMIDJI        CLOUDY    34  15  45 E15G23    30.08F WCI  24
PARK RAPIDS    CLOUDY    28  21  75 E16G28    30.04R WCI  16
6HR MIN TEMP:  24; 6HR MAX TEMP:  28; 6HR PCP: TRACE;

ELBOW LAKE     LGT SNOW  28  26  90 E16G25    29.95S VSB 1   WCI  17
6HR MIN TEMP:  27; 6HR MAX TEMP:  28;

WADENA         LGT SNOW  27  23  86 NE13G20   30.00S VSB 1   WCI  16
DETROIT LAKES  PTSUNNY   32  23  69 E20G26    30.03R WCI  20
MOORHEAD       NOT AVBL
FERGUS FALLS   FAIR      30  21  69 E21G30    29.96S WCI  17
MORRIS MN      SNOW      28  27  93 NE22      29.91S VSB 1/2 WCI  15
STAPLES        LGT SNOW  27  25  93 NE10G18   30.00F VSB 3/4 WCI  17
$$
  *****  WEATHER ELSEWHERE ACROSS MINNESOTA  *****

CITY           SKY/WX    TMP DP  RH WIND       PRES   REMARKS
DULUTH         LGT SNOW  26  22  84 E20G33    30.10F VSB 3/4 WCI  12
6HR MIN TEMP:  25; 6HR MAX TEMP:  27; 6HR PCP:  0.04;

INTRNTL FALLS  FAIR      33   6  32 NE8       30.18F
6HR MIN TEMP:  17; 6HR MAX TEMP:  33;

ELY            FAIR      30   7  37 E12       30.16S WCI  21
CLOQUET        LGT SNOW  27  25  93 E16G24    30.08S VSB 3/4 WCI  14
WHEATON        LGT SNOW  32  28  86 NE15G23   29.97S WCI  22
BRAINERD       SNOW      32  24  72 E12       30.02S VSB 1/2 WCI  23
6HR MIN TEMP:  29; 6HR MAX TEMP:  32; 6HR PCP: TRACE;

HIBBING        FLURRIES  29  19  66 E14G23    30.13F WCI  18
6HR MIN TEMP:  23; 6HR MAX TEMP:  31; 6HR PCP: TRACE;

ALEXANDRIA     SNOW      27  24  89 NE20G29   29.94R VSB 1/4 WCI  13
6HR MIN TEMP:  27; 6HR MAX TEMP:  28; 6HR PCP:  0.05;

SAINT CLOUD    SNOW      29  26  89 NE14G22   29.92F VSB 1/4 WCI  18
6HR MIN TEMP:  29; 6HR MAX TEMP:  30; 6HR PCP:  0.33;

MINNEAPOLIS    CLOUDY    35  27  72 E16       29.89F
6HR MIN TEMP:  32; 6HR MAX TEMP:  36; 6HR PCP: TRACE;

$$

  *****  WEATHER ACROSS SOUTH DAKOTA  *****

CITY           SKY/WX    TMP DP  RH WIND       PRES   REMARKS
SIOUX FALLS    LGT RAIN  47  34  60 SE5       29.65S
6HR MIN TEMP:  43; 6HR MAX TEMP:  48; 6HR PCP:  0.06;

BROOKINGS      NOT AVBL
WATERTOWN      HVY SNOW  27  25  92 NE23G33   29.81S VSB 1/4 WCI  12
6HR MIN TEMP:  27; 6HR MAX TEMP:  30; 6HR PCP:  0.02;

HURON          LGT SNOW  31  27  85 N20G30    29.83R FOG     WCI  19
6HR MIN TEMP:  30; 6HR MAX TEMP:  34; 6HR PCP:  0.17;

SISSETON         N/A     29  27  92 E21       29.93S WCI  16
ABERDEEN       CLOUDY    31  26  82 NE23G30   29.95R WCI  18
6HR MIN TEMP:  27; 6HR MAX TEMP:  31; 6HR PCP:  0.02;

MITCHELL       CLOUDY    35  32  88 N23G29    29.76R FOG     WCI  23
PIERRE         CLOUDY    33  27  78 N21       29.94R WCI  21
6HR MIN TEMP:  30; 6HR MAX TEMP:  33; 6HR PCP:  0.02;

MOBRIDGE       CLOUDY    33  24  69 N15       29.98R WCI  23
RAPID CITY     CLOUDY    41  29  62 N22G32    29.95R
6HR MIN TEMP:  33; 6HR MAX TEMP:  42; 6HR PCP: TRACE;

$$

  *****  SOME WEATHER IN NEARBY STATES *****

CITY           SKY/WX    TMP DP  RH WIND       PRES   REMARKS
GLASGOW MT     CLOUDY    34  21  59 E10       30.10R
6HR MIN TEMP:  23; 6HR MAX TEMP:  34;

GREAT FALLS MT PTSUNNY   40  31  70 NW5       29.97F
6HR MIN TEMP:  31; 6HR MAX TEMP:  42;

CHEYENNE WY    PTSUNNY   40  27  59 N16G24    29.94F
6HR MIN TEMP:  32; 6HR MAX TEMP:  41; 6HR PCP: TRACE;

SCOTTSBLUFF NE MOSUNNY   52  25  35 NW25G35   29.92R
6HR MIN TEMP:  40; 6HR MAX TEMP:  53;

OMAHA NE       CLOUDY    60  28  29 S23G32    29.70F
6HR MIN TEMP:  46; 6HR MAX TEMP:  60;

DES MOINES IA  CLOUDY    63  30  28 S32G40    29.83F
6HR MIN TEMP:  43; 6HR MAX TEMP:  63;

DAVENPORT IA   FAIR      54  30  40 S29G39    30.08F
6HR MIN TEMP:  35; 6HR MAX TEMP:  54;

CHICAGO IL     CLOUDY    48  25  40 S21G30    30.23F
6HR MIN TEMP:  31; 6HR MAX TEMP:  48;

EAU CLAIRE WI  CLOUDY    39  28  64 E16       29.97F
6HR MIN TEMP:  29; 6HR MAX TEMP:  40; 6HR PCP: TRACE;

LA CROSSE WI   FAIR      54  28  36 S17G25    29.95F
6HR MIN TEMP:  34; 6HR MAX TEMP:  54;

$$

  *****  SOME NATIONAL WEATHER *****

CITY           SKY/WX    TMP DP  RH WIND       PRES   REMARKS
LA GUARDIA NY  MOSUNNY   44  17  33 NW15G24   30.40R
6HR MIN TEMP:  32; 6HR MAX TEMP:  44;

RALEIGH NC     SUNNY     50  26  39 NE14G20   30.37F
6HR MIN TEMP:  35; 6HR MAX TEMP:  50;

ATLANTA GA     MOSUNNY   56  25  30 SE9       30.26F
6HR MIN TEMP:  37; 6HR MAX TEMP:  56;

NEW ORLEANS LA FAIR      61  42  49 VRB7      30.21F
6HR MIN TEMP:  47; 6HR MAX TEMP:  61;

OKLAHOMA CITY  FAIR      64  27  24 S32G41    29.92F
6HR MIN TEMP:  46; 6HR MAX TEMP:  65;

ALBUQUERQUE NM MOSUNNY   65   7  10 CALM      29.91F
6HR MIN TEMP:  40; 6HR MAX TEMP:  65;

SALT LAKE CITY PTSUNNY   54  16  22 W10       30.02S
6HR MIN TEMP:  40; 6HR MAX TEMP:  54;

LOS ANGELES CA MOSUNNY   65  52  62 W7        29.87R
6HR MIN TEMP:  58; 6HR MAX TEMP:  67;

BOISE ID       SUNNY     54  19  25 NW9       30.06S



USA.gov is the U.S. government's official web portal to all federal, state and local government web resources and services.